Time,TemperatureF,DewpointF,PressureIn,WindDirection,WindDirectionDegrees,WindSpeedMPH,WindSpeedGustMPH,Humidity,HourlyPrecipIn,Conditions,Clouds,dailyrainin,SolarRadiationWatts/m^2,SoftwareType,DateUTC
2013-01-16 00:06:00,60.2,59.0,30.10,SSE,154,0.0,0.0,96,0.00,,,0.00,0,weatherlink.com 1.10,2013-01-16 05:06:00,
2013-01-16 00:21:00,60.1,59.0,30.10,SSE,154,0.0,0.0,96,0.00,,,0.00,0,weatherlink.com 1.10,2013-01-16 05:21:00,
2013-01-16 00:36:00,60.0,59.0,30.10,SSE,154,0.0,0.0,96,0.00,,,0.00,0,weatherlink.com 1.10,2013-01-16 05:36:00,
2013-01-16 00:51:00,60.1,59.0,30.10,SSE,154,0.0,1.0,97,0.00,,,0.00,0,weatherlink.com 1.10,2013-01-16 05:51:00,
2013-01-16 01:07:00,60.3,60.0,30.10,SSE,154,0.0,1.0,97,0.00,,,0.00,0,weatherlink.com 1.10,2013-01-16 06:07:00,
2013-01-16 01:22:00,60.5,60.0,30.10,SSE,154,0.0,0.0,97,0.00,,,0.00,0,weatherlink.com 1.10,2013-01-16 06:22:00,
2013-01-16 01:37:00,60.5,60.0,30.10,SSE,154,0.0,1.0,97,0.00,,,0.00,0,weatherlink.com 1.10,2013-01-16 06:37:00,
2013-01-16 01:52:00,60.3,59.0,30.10,SSE,154,0.0,0.0,96,0.00,,,0.00,0,weatherlink.com 1.10,2013-01-16 06:52:00,
2013-01-16 02:07:00,60.2,59.0,30.10,SSE,154,0.0,0.0,96,0.00,,,0.00,0,weatherlink.com 1.10,2013-01-16 07:07:00,
2013-01-16 02:22:00,59.8,59.0,30.10,SSE,154,0.0,0.0,96,0.00,,,0.00,0,weatherlink.com 1.10,2013-01-16 07:22:00,
2013-01-16 02:37:00,59.6,59.0,30.10,SSE,154,0.0,0.0,96,0.00,,,0.00,0,weatherlink.com 1.10,2013-01-16 07:37:00,
2013-01-16 02:52:00,59.3,58.0,30.10,SSE,154,0.0,0.0,96,0.00,,,0.00,0,weatherlink.com 1.10,2013-01-16 07:52:00,
2013-01-16 03:07:00,58.9,58.0,30.09,SSE,154,0.0,0.0,96,0.00,,,0.00,0,weatherlink.com 1.10,2013-01-16 08:07:00,
2013-01-16 03:22:00,58.6,58.0,30.10,SSE,154,0.0,0.0,96,0.00,,,0.00,0,weatherlink.com 1.10,2013-01-16 08:22:00,
2013-01-16 03:37:00,58.3,57.0,30.10,SSE,154,0.0,0.0,96,0.00,,,0.00,0,weatherlink.com 1.10,2013-01-16 08:37:00,
2013-01-16 03:52:00,58.0,57.0,30.09,SSE,154,0.0,0.0,96,0.00,,,0.00,0,weatherlink.com 1.10,2013-01-16 08:52:00,
2013-01-16 04:07:00,57.8,57.0,30.09,SSE,154,0.0,0.0,96,0.00,,,0.00,0,weatherlink.com 1.10,2013-01-16 09:07:00,
2013-01-16 04:22:00,57.6,57.0,30.09,SSE,154,0.0,0.0,97,0.00,,,0.00,0,weatherlink.com 1.10,2013-01-16 09:22:00,
2013-01-16 04:37:00,57.5,57.0,30.09,SSE,154,0.0,0.0,97,0.00,,,0.00,0,weatherlink.com 1.10,2013-01-16 09:37:00,
2013-01-16 04:52:00,57.3,57.0,30.08,SSE,154,0.0,0.0,97,0.00,,,0.00,0,weatherlink.com 1.10,2013-01-16 09:52:00,
2013-01-16 05:07:00,57.1,56.0,30.08,SSE,154,0.0,0.0,97,0.00,,,0.00,0,weatherlink.com 1.10,2013-01-16 10:07:00,
2013-01-16 05:22:00,56.8,56.0,30.08,SSE,154,0.0,0.0,97,0.00,,,0.00,0,weatherlink.com 1.10,2013-01-16 10:22:00,
2013-01-16 05:37:00,56.8,56.0,30.09,SSE,154,0.0,0.0,97,0.00,,,0.00,0,weatherlink.com 1.10,2013-01-16 10:37:00,
2013-01-16 05:52:00,56.6,56.0,30.09,SSE,154,0.0,0.0,97,0.00,,,0.00,0,weatherlink.com 1.10,2013-01-16 10:52:00,
2013-01-16 06:07:00,56.4,56.0,30.09,SSE,154,0.0,0.0,97,0.00,,,0.00,0,weatherlink.com 1.10,2013-01-16 11:07:00,
2013-01-16 06:22:00,56.4,56.0,30.09,SSE,154,0.0,0.0,97,0.00,,,0.00,0,weatherlink.com 1.10,2013-01-16 11:22:00,
2013-01-16 06:37:00,56.2,55.0,30.10,SSE,154,0.0,0.0,97,0.00,,,0.00,0,weatherlink.com 1.10,2013-01-16 11:37:00,
2013-01-16 06:52:00,56.0,55.0,30.10,SSE,154,0.0,0.0,97,0.00,,,0.00,0,weatherlink.com 1.10,2013-01-16 11:52:00,
2013-01-16 07:07:00,55.9,55.0,30.10,SSE,154,0.0,0.0,97,0.00,,,0.00,0,weatherlink.com 1.10,2013-01-16 12:07:00,
2013-01-16 07:22:00,55.8,55.0,30.11,SSE,154,0.0,0.0,97,0.00,,,0.00,11,weatherlink.com 1.10,2013-01-16 12:22:00,
2013-01-16 07:37:00,56.0,55.0,30.12,SSE,154,0.0,0.0,97,0.00,,,0.00,26,weatherlink.com 1.10,2013-01-16 12:37:00,
2013-01-16 07:52:00,56.4,56.0,30.12,SSE,154,0.0,0.0,97,0.00,,,0.00,39,weatherlink.com 1.10,2013-01-16 12:52:00,
2013-01-16 08:07:00,57.2,57.0,30.13,SSE,154,0.0,0.0,98,0.00,,,0.00,46,weatherlink.com 1.10,2013-01-16 13:07:00,
2013-01-16 08:22:00,57.8,57.0,30.13,SSE,154,0.0,0.0,98,0.00,,,0.00,51,weatherlink.com 1.10,2013-01-16 13:22:00,
2013-01-16 08:37:00,59.4,59.0,30.13,SSE,154,0.0,0.0,98,0.00,,,0.00,53,weatherlink.com 1.10,2013-01-16 13:37:00,
2013-01-16 08:52:00,61.8,61.0,30.14,SSE,154,0.0,0.0,98,0.00,,,0.00,53,weatherlink.com 1.10,2013-01-16 13:52:00,
2013-01-16 09:07:00,64.0,64.0,30.14,SSE,154,0.0,1.0,98,0.00,,,0.00,53,weatherlink.com 1.10,2013-01-16 14:07:00,
2013-01-16 09:22:00,66.0,66.0,30.14,SSW,204,1.0,3.0,98,0.00,,,0.00,53,weatherlink.com 1.10,2013-01-16 14:22:00,
2013-01-16 09:37:00,67.0,67.0,30.14,WSW,258,0.0,2.0,98,0.00,,,0.00,56,weatherlink.com 1.10,2013-01-16 14:37:00,
2013-01-16 09:53:00,68.0,68.0,30.15,SW,218,1.0,5.0,98,0.00,,,0.00,336,weatherlink.com 1.10,2013-01-16 14:53:00,
2013-01-16 10:08:00,71.4,67.0,30.15,WSW,255,4.0,5.0,86,0.00,,,0.00,408,weatherlink.com 1.10,2013-01-16 15:08:00,
2013-01-16 10:23:00,74.0,68.0,30.14,SW,222,4.0,5.0,80,0.00,,,0.00,504,weatherlink.com 1.10,2013-01-16 15:23:00,
2013-01-16 10:38:00,76.5,68.0,30.14,WSW,244,3.0,5.0,76,0.00,,,0.00,578,weatherlink.com 1.10,2013-01-16 15:38:00,
2013-01-16 10:53:00,77.5,67.0,30.13,SW,224,8.0,10.0,69,0.00,,,0.00,622,weatherlink.com 1.10,2013-01-16 15:53:00,
2013-01-16 11:08:00,78.6,66.0,30.12,SSW,211,3.0,8.0,65,0.00,,,0.00,649,weatherlink.com 1.10,2013-01-16 16:08:00,
2013-01-16 11:23:00,79.4,64.0,30.12,SW,234,3.0,8.0,59,0.00,,,0.00,649,weatherlink.com 1.10,2013-01-16 16:23:00,
2013-01-16 11:38:00,80.2,65.0,30.11,South,178,7.0,9.0,60,0.00,,,0.00,712,weatherlink.com 1.10,2013-01-16 16:38:00,
2013-01-16 11:53:00,80.6,66.0,30.10,South,171,5.0,10.0,61,0.00,,,0.00,703,weatherlink.com 1.10,2013-01-16 16:53:00,
2013-01-16 12:08:00,81.2,65.0,30.10,West,271,1.0,9.0,59,0.00,,,0.00,701,weatherlink.com 1.10,2013-01-16 17:08:00,
2013-01-16 12:23:00,81.9,66.0,30.09,SW,219,3.0,10.0,59,0.00,,,0.00,714,weatherlink.com 1.10,2013-01-16 17:23:00,
2013-01-16 12:38:00,82.2,66.0,30.08,WSW,257,2.0,11.0,59,0.00,,,0.00,682,weatherlink.com 1.10,2013-01-16 17:38:00,
2013-01-16 12:53:00,82.4,66.0,30.08,SSE,167,1.0,9.0,58,0.00,,,0.00,292,weatherlink.com 1.10,2013-01-16 17:53:00,
2013-01-16 13:08:00,81.8,65.0,30.07,SW,218,4.0,10.0,58,0.00,,,0.00,216,weatherlink.com 1.10,2013-01-16 18:08:00,
2013-01-16 13:23:00,81.5,65.0,30.06,South,189,3.0,9.0,58,0.00,,,0.00,687,weatherlink.com 1.10,2013-01-16 18:23:00,
2013-01-16 13:38:00,81.6,66.0,30.06,NE,42,1.0,9.0,59,0.00,,,0.00,613,weatherlink.com 1.10,2013-01-16 18:38:00,
2013-01-16 13:53:00,81.4,65.0,30.05,SW,231,3.0,9.0,58,0.00,,,0.00,621,weatherlink.com 1.10,2013-01-16 18:53:00,
2013-01-16 14:08:00,81.9,63.0,30.05,SSW,207,6.0,10.0,53,0.00,,,0.00,526,weatherlink.com 1.10,2013-01-16 19:08:00,
2013-01-16 14:23:00,81.9,64.0,30.05,SSW,201,4.0,8.0,54,0.00,,,0.00,554,weatherlink.com 1.10,2013-01-16 19:23:00,
2013-01-16 14:38:00,81.4,64.0,30.05,South,181,3.0,8.0,56,0.00,,,0.00,585,weatherlink.com 1.10,2013-01-16 19:38:00,
2013-01-16 14:53:00,82.1,63.0,30.05,South,180,6.0,10.0,53,0.00,,,0.00,563,weatherlink.com 1.10,2013-01-16 19:53:00,
2013-01-16 15:08:00,81.9,63.0,30.04,South,184,2.0,7.0,53,0.00,,,0.00,58,weatherlink.com 1.10,2013-01-16 20:08:00,
2013-01-16 15:24:00,82.0,64.0,30.05,SW,232,3.0,11.0,55,0.00,,,0.00,60,weatherlink.com 1.10,2013-01-16 20:24:00,
2013-01-16 15:39:00,81.9,64.0,30.04,SW,218,7.0,8.0,55,0.00,,,0.00,54,weatherlink.com 1.10,2013-01-16 20:39:00,
2013-01-16 15:53:00,81.8,64.0,30.05,SSW,196,4.0,8.0,55,0.00,,,0.00,214,weatherlink.com 1.10,2013-01-16 20:53:00,
2013-01-16 16:08:00,81.5,65.0,30.05,SW,223,6.0,8.0,57,0.00,,,0.00,102,weatherlink.com 1.10,2013-01-16 21:08:00,
2013-01-16 16:23:00,81.3,65.0,30.05,SW,215,3.0,5.0,57,0.00,,,0.00,37,weatherlink.com 1.10,2013-01-16 21:23:00,
2013-01-16 16:38:00,80.8,64.0,30.05,SW,230,5.0,6.0,57,0.00,,,0.00,35,weatherlink.com 1.10,2013-01-16 21:38:00,
2013-01-16 16:53:00,79.9,64.0,30.06,WSW,244,0.0,6.0,58,0.00,,,0.00,56,weatherlink.com 1.10,2013-01-16 21:53:00,
2013-01-16 17:08:00,79.0,67.0,30.05,SE,134,2.0,8.0,67,0.00,,,0.00,32,weatherlink.com 1.10,2013-01-16 22:08:00,
2013-01-16 17:23:00,77.3,67.0,30.06,SW,214,2.0,7.0,71,0.00,,,0.00,21,weatherlink.com 1.10,2013-01-16 22:23:00,
2013-01-16 17:38:00,76.2,67.0,30.06,ENE,73,0.0,5.0,73,0.00,,,0.00,9,weatherlink.com 1.10,2013-01-16 22:38:00,
2013-01-16 17:53:00,75.1,67.0,30.06,SE,132,0.0,4.0,76,0.00,,,0.00,0,weatherlink.com 1.10,2013-01-16 22:53:00,
2013-01-16 18:08:00,74.0,67.0,30.06,SE,128,0.0,3.0,78,0.00,,,0.00,0,weatherlink.com 1.10,2013-01-16 23:08:00,
2013-01-16 18:24:00,73.1,67.0,30.07,ESE,109,1.0,3.0,80,0.00,,,0.00,0,weatherlink.com 1.10,2013-01-16 23:24:00,
2013-01-16 18:39:00,72.2,66.0,30.07,ESE,110,0.0,1.0,81,0.00,,,0.00,0,weatherlink.com 1.10,2013-01-16 23:39:00,
2013-01-16 18:54:00,71.3,66.0,30.07,ESE,110,0.0,1.0,83,0.00,,,0.00,0,weatherlink.com 1.10,2013-01-16 23:54:00,
2013-01-16 19:09:00,70.5,66.0,30.07,ESE,110,0.0,0.0,85,0.00,,,0.00,0,weatherlink.com 1.10,2013-01-17 00:09:00,
2013-01-16 19:24:00,69.9,66.0,30.07,ESE,110,0.0,1.0,87,0.00,,,0.00,0,weatherlink.com 1.10,2013-01-17 00:24:00,
2013-01-16 19:39:00,69.3,65.0,30.08,ESE,110,0.0,1.0,87,0.00,,,0.00,0,weatherlink.com 1.10,2013-01-17 00:39:00,
2013-01-16 19:54:00,69.0,66.0,30.08,South,172,0.0,2.0,89,0.00,,,0.00,0,weatherlink.com 1.10,2013-01-17 00:54:00,
2013-01-16 20:09:00,68.8,66.0,30.08,SSW,192,0.0,2.0,90,0.00,,,0.00,0,weatherlink.com 1.10,2013-01-17 01:09:00,
2013-01-16 20:24:00,68.5,66.0,30.09,SSW,192,0.0,0.0,90,0.00,,,0.00,0,weatherlink.com 1.10,2013-01-17 01:24:00,
2013-01-16 20:39:00,68.1,65.0,30.09,SSW,192,0.0,1.0,91,0.00,,,0.00,0,weatherlink.com 1.10,2013-01-17 01:39:00,
2013-01-16 20:54:00,67.7,65.0,30.08,SSW,192,0.0,1.0,92,0.00,,,0.00,0,weatherlink.com 1.10,2013-01-17 01:54:00,
2013-01-16 21:09:00,67.4,65.0,30.08,SSW,192,0.0,1.0,93,0.00,,,0.00,0,weatherlink.com 1.10,2013-01-17 02:09:00,
2013-01-16 21:24:00,67.3,65.0,30.08,SSE,152,0.0,1.0,93,0.00,,,0.00,0,weatherlink.com 1.10,2013-01-17 02:24:00,
2013-01-16 21:39:00,67.5,66.0,30.08,SSE,155,0.0,1.0,94,0.00,,,0.00,0,weatherlink.com 1.10,2013-01-17 02:39:00,
2013-01-16 21:54:00,67.8,66.0,30.08,SSE,155,0.0,2.0,94,0.00,,,0.00,0,weatherlink.com 1.10,2013-01-17 02:54:00,
2013-01-16 22:09:00,68.2,66.0,30.08,West,265,0.0,2.0,93,0.00,,,0.00,0,weatherlink.com 1.10,2013-01-17 03:09:00,
2013-01-16 22:24:00,68.8,67.0,30.08,South,180,0.0,2.0,93,0.00,,,0.00,0,weatherlink.com 1.10,2013-01-17 03:24:00,
2013-01-16 22:39:00,69.4,67.0,30.07,South,179,0.0,5.0,92,0.00,,,0.00,0,weatherlink.com 1.10,2013-01-17 03:39:00,
2013-01-16 22:54:00,69.8,67.0,30.07,South,182,0.0,5.0,91,0.00,,,0.00,0,weatherlink.com 1.10,2013-01-17 03:54:00,
2013-01-16 23:09:00,69.9,67.0,30.07,SW,222,1.0,4.0,90,0.00,,,0.00,0,weatherlink.com 1.10,2013-01-17 04:09:00,
2013-01-16 23:24:00,69.8,67.0,30.07,SSW,204,3.0,5.0,90,0.00,,,0.00,0,weatherlink.com 1.10,2013-01-17 04:24:00,
2013-01-16 23:39:00,69.6,67.0,30.07,SW,215,2.0,4.0,90,0.00,,,0.00,0,weatherlink.com 1.10,2013-01-17 04:39:00,
2013-01-16 23:54:00,69.4,67.0,30.07,SSW,200,1.0,4.0,91,0.00,,,0.00,0,weatherlink.com 1.10,2013-01-17 04:54:00,